This demonstration page uses our WeatherBlox Daily Observations layout. Learn more.

Hourly Observations for August 12, 2019

Temp ( °F °C ) Dew Point ( °F °C ) Humidity (%) Winds ( mph kmh ) Pressure ( in mb ) Visibility ( mi km ) Precip ( " mm )
12:15 am 00:15 Mostly Cloudy with Light Thunderstorms 68 20 67 19.5 97 97 SW 13 20 29.77 1008 10 16.09344 0.01 0.254
12:35 am 00:35 Cloudy with Thunderstorms 68 19.8 67 19.6 99 99 SSW 10 17 29.83 1010 10 16.09344 0.03 0.762
12:55 am 00:55 Cloudy with Nearby Thunderstorms 68 19.8 68 19.8 100 100 WSW 6 9 29.8 1009 7 11.265408 0.09 2.286
1:15 am 01:15 Cloudy with Thunderstorms 68 20 68 20 100 100 Calm 29.8 1009 7 11.265408 0.05 1.27
1:35 am 01:35 Cloudy with Nearby Thunderstorms 68 20.1 68 20.1 100 100 S 7 11 29.8 1009 10 16.09344 0.1 2.54
1:55 am 01:55 Cloudy with Light Rain 68 20.1 68 20.1 100 100 Calm 29.77 1008 10 16.09344 0.13 3.302
2:15 am 02:15 Cloudy with Light Rain 68 20.1 68 20.1 100 100 N 3 6 29.77 1008 10 16.09344 0.01 0.254
2:35 am 02:35 Partly Cloudy with Light Rain 68 20 68 20 100 100 Calm 29.74 1007 10 16.09344 0.01 0.254
2:55 am 02:55 Clear 68 20 68 20 100 100 SW 3 6 29.77 1008 10 16.09344 0.01 0.254
3:15 am 03:15 Clear 68 20.1 68 20.1 100 100 W 6 9 29.77 1008 10 16.09344 0 0
3:35 am 03:35 Clear 69 20.4 69 20.3 99 99 W 5 7 29.74 1007 10 16.09344 0 0
3:55 am 03:55 Clear 69 20.6 69 20.5 99 99 SSW 8 13 29.77 1008 10 16.09344 0 0
4:15 am 04:15 Clear 69 20.3 68 20.1 99 99 NW 3 6 29.74 1007 10 16.09344 0 0
4:35 am 04:35 Clear 68 20 68 20 100 100 WNW 3 6 29.74 1007 10 16.09344 0 0
4:55 am 04:55 Clear 68 19.8 68 19.8 100 100 Calm 29.77 1008 10 16.09344 0 0
5:15 am 05:15 Clear 67 19.6 67 19.6 100 100 Calm 29.77 1008 10 16.09344 0 0
5:35 am 05:35 Clear 67 19.4 67 19.4 100 100 Calm 29.74 1007 10 16.09344 0 0
5:55 am 05:55 Clear 66 19 66 19 100 100 N 3 6 29.74 1007 7 11.265408 0 0
6:15 am 06:15 Clear 66 18.7 66 18.7 100 100 N 5 7 29.77 1008 7 11.265408 0 0
6:35 am 06:35 Clear 66 19.1 66 19.1 100 100 N 5 7 29.74 1007 7 11.265408 0 0
6:55 am 06:55 Sunny 66 18.8 66 18.8 100 100 N 3 6 29.77 1008 7 11.265408 0 0
7:15 am 07:15 Sunny 66 19 66 19 100 100 NNW 6 9 29.77 1008 10 16.09344 0 0
7:35 am 07:35 Sunny 67 19.5 67 19.5 100 100 Calm 29.8 1009 10 16.09344 0 0
7:55 am 07:55 Sunny 68 20.2 68 20.1 99 99 Calm 29.8 1009 10 16.09344 0 0
8:15 am 08:15 Sunny 70 21 70 21 100 100 Calm 29.8 1009 10 16.09344 0 0
8:35 am 08:35 Sunny 71 21.5 70 21.2 98 98 WSW 3 6 29.83 1010 10 16.09344 0 0
8:55 am 08:55 Partly Cloudy 72 22.3 71 21.8 97 97 SW 6 9 29.8 1009 10 16.09344 0 0
9:15 am 09:15 Partly Cloudy 73 22.5 71 21.7 95 95 SW 6 9 29.8 1009 10 16.09344 0 0
9:35 am 09:35 Partly Cloudy 72 22.2 71 21.5 96 96 SW 6 9 29.8 1009 10 16.09344 0 0
9:55 am 09:55 Partly Cloudy 74 23.5 71 21.9 91 91 SSW 5 7 29.77 1008 10 16.09344 0 0
10:15 am 10:15 Sunny 74 23.2 71 21.7 91 91 WSW 3 6 29.8 1009 10 16.09344 0 0
10:35 am 10:35 Sunny 74 23.5 71 21.7 90 90 Calm 29.8 1009 10 16.09344 0 0
10:55 am 10:55 Sunny 76 24.3 71 21.9 87 87 SW 3 6 29.8 1009 10 16.09344 0 0
11:15 am 11:15 Sunny 76 24.2 71 21.7 86 86 SW 3 6 29.8 1009 10 16.09344 0 0
11:35 am 11:35 Sunny 76 24.7 71 21.7 83 83 SSW 3 6 29.8 1009 10 16.09344 0 0
11:55 am 11:55 Sunny 79 25.9 70 21.2 75 75 Calm 29.77 1008 10 16.09344 0 0
12:15 pm 12:15 Sunny 78 25.7 69 20.8 74 74 WSW 3 6 29.8 1009 10 16.09344 0 0
12:35 pm 12:35 Sunny 80 26.6 71 21.8 75 75 WNW 3 6 29.77 1008 10 16.09344 0 0
12:55 pm 12:55 Partly Cloudy 81 27 71 21.8 73 73 SW 5 7 29.77 1008 10 16.09344 0 0
1:15 pm 13:15 Sunny 81 27.4 71 21.8 72 72 Calm 29.77 1008 10 16.09344 0 0
1:35 pm 13:35 Partly Cloudy 82 27.7 73 22.8 75 75 NW 3 6 29.77 1008 10 16.09344 0 0
1:55 pm 13:55 Mostly Cloudy 82 27.9 73 22.7 73 73 WNW 5 7 29.77 1008 10 16.09344 0 0
2:15 pm 14:15 Mostly Cloudy 82 27.5 72 22.2 73 73 NW 3 6 29.8 1009 10 16.09344 0 0
2:35 pm 14:35 Mostly Cloudy 83 28.1 73 22.7 73 73 N 6 9 29.8 1009 10 16.09344 0 0
2:55 pm 14:55 Partly Cloudy 83 28.5 72 22.1 68 68 NW 3 6 29.8 1009 10 16.09344 0 0
3:15 pm 15:15 Partly Cloudy 84 28.8 73 22.9 70 70 NW 5 7 29.8 1009 10 16.09344 0 0
3:35 pm 15:35 Mostly Cloudy 83 28.3 73 22.6 71 71 NNE 6 9 29.8 1009 10 16.09344 0 0
3:55 pm 15:55 Partly Cloudy 84 28.7 72 22.3 68 68 N 5 7 29.8 1009 10 16.09344 0 0
4:15 pm 16:15 Sunny 84 28.9 71 21.8 66 66 N 3 6 29.8 1009 10 16.09344 0 0
4:35 pm 16:35 Partly Cloudy 85 29.3 71 21.9 64 64 Calm 29.8 1009 10 16.09344 0 0
4:55 pm 16:55 Partly Cloudy 85 29.2 73 22.8 68 68 N 6 9 29.8 1009 10 16.09344 0 0
5:15 pm 17:15 Partly Cloudy 85 29.3 73 22.7 68 68 N 6 9 29.8 1009 10 16.09344 0 0
5:35 pm 17:35 Partly Cloudy 84 28.8 73 22.8 70 70 NNE 5 7 29.8 1009 10 16.09344 0 0
5:55 pm 17:55 Sunny 84 28.8 72 22.2 68 68 N 6 9 29.8 1009 10 16.09344 0 0
6:15 pm 18:15 Sunny 84 28.9 72 22.2 67 67 N 5 7 29.8 1009 10 16.09344 0 0
6:35 pm 18:35 Sunny 83 28.6 72 22.1 68 68 N 5 7 29.8 1009 10 16.09344 0 0
6:55 pm 18:55 Sunny 83 28.2 72 22.2 70 70 N 3 6 29.8 1009 10 16.09344 0 0
7:15 pm 19:15 Sunny 82 27.7 73 22.5 73 73 NNE 3 6 29.8 1009 10 16.09344 0 0
7:35 pm 19:35 Sunny 81 27.4 74 23.1 77 77 NNE 3 6 29.8 1009 10 16.09344 0 0
7:55 pm 19:55 Sunny 80 26.9 74 23.3 81 81 NE 3 6 29.8 1009 10 16.09344 0 0
8:15 pm 20:15 Sunny 79 26.1 74 23.5 86 86 Calm 29.83 1010 10 16.09344 0 0
8:35 pm 20:35 Sunny 78 25.6 74 23.5 88 88 Calm 29.83 1010 10 16.09344 0 0
8:55 pm 20:55 Clear 77 24.9 74 23.5 92 92 N 3 6 29.85 1011 10 16.09344 0 0
9:15 pm 21:15 Clear 75 23.8 73 23 95 95 Calm 29.85 1011 10 16.09344 0 0
9:35 pm 21:35 Clear 75 23.7 72 22.3 92 92 N 6 9 29.85 1011 10 16.09344 0 0
9:55 pm 21:55 Clear 73 22.9 71 21.8 94 94 NNE 5 7 29.85 1011 10 16.09344 0 0
10:15 pm 22:15 Clear 73 22.5 71 21.6 95 95 NE 5 7 29.88 1012 10 16.09344 0 0
10:35 pm 22:35 Clear 73 22.5 71 21.6 95 95 NNE 6 9 29.91 1013 10 16.09344 0 0
10:55 pm 22:55 Clear 72 22.1 70 21.3 95 95 NNE 6 9 29.91 1013 10 16.09344 0 0
11:15 pm 23:15 Clear 71 21.5 70 21.1 98 98 NNE 5 7 29.91 1013 10 16.09344 0 0
11:35 pm 23:35 Clear 70 21.1 69 20.8 98 98 N 3 6 29.91 1013 10 16.09344 0 0
11:55 pm 23:55 Clear 70 21.1 69 20.7 98 98 Calm 29.91 1013 10 16.09344 0 0

Powered by AerisWeather